�������l�o���
Date,Time,MP-1(��Sv/h),MP-2(��Sv/h),MP-3(��Sv/h),MP-4(��Sv/h),MP-5(��Sv/h),MP-6(��Sv/h),MP-7(��Sv/h),MP-8(��Sv/h),����,����(m/s),���J
2023/05/18,00:00,0.567,0.829,0.499,1.004,0.727,0.328,0.580,0.546,���k��,2.0,��
2023/05/18,00:10,0.565,0.828,0.501,1.004,0.727,0.327,0.580,0.545,��,2.5,��
2023/05/18,00:20,0.567,0.828,0.500,1.006,0.727,0.328,0.579,0.546,��,2.2,��
2023/05/18,00:30,0.569,0.827,0.499,1.006,0.729,0.329,0.579,0.543,��쐼,1.4,��
2023/05/18,00:40,0.568,0.828,0.499,1.005,0.730,0.328,0.580,0.545,���쐼,1.7,��
2023/05/18,00:50,0.567,0.826,0.499,1.006,0.727,0.328,0.581,0.544,���쐼,2.0,��
2023/05/18,01:00,0.568,0.826,0.499,1.004,0.728,0.328,0.580,0.546,���쐼,2.6,��
2023/05/18,01:10,0.568,0.829,0.499,1.006,0.728,0.327,0.581,0.544,���쐼,3.0,��
2023/05/18,01:20,0.567,0.827,0.500,1.006,0.727,0.329,0.580,0.545,���쐼,3.4,��
2023/05/18,01:30,0.568,0.825,0.499,1.005,0.729,0.328,0.580,0.543,���쐼,5.2,��
2023/05/18,01:40,0.567,0.827,0.497,1.006,0.727,0.328,0.578,0.545,���쐼,5.8,��
2023/05/18,01:50,0.564,0.826,0.498,1.005,0.727,0.329,0.580,0.543,���쐼,6.1,��
2023/05/18,02:00,0.567,0.827,0.499,1.004,0.727,0.327,0.578,0.544,���쐼,4.7,��
2023/05/18,02:10,0.567,0.825,0.500,1.002,0.727,0.328,0.581,0.543,���쐼,3.3,��
2023/05/18,02:20,0.566,0.830,0.499,1.006,0.727,0.329,0.580,0.545,��,4.2,��
2023/05/18,02:30,0.564,0.826,0.499,1.005,0.728,0.329,0.582,0.545,���쐼,4.9,��
2023/05/18,02:40,0.566,0.827,0.497,1.007,0.728,0.327,0.580,0.544,��,6.5,��
2023/05/18,02:50,0.566,0.825,0.500,1.006,0.728,0.329,0.578,0.545,��,5.4,��
2023/05/18,03:00,0.566,0.826,0.499,1.005,0.729,0.329,0.579,0.544,��,3.7,��
2023/05/18,03:10,0.564,0.826,0.499,1.004,0.729,0.330,0.580,0.543,���쐼,2.0,��
2023/05/18,03:20,0.566,0.824,0.500,1.004,0.727,0.327,0.580,0.544,��,3.6,��
2023/05/18,03:30,0.566,0.824,0.498,1.005,0.728,0.329,0.581,0.544,��,5.2,��
2023/05/18,03:40,0.568,0.826,0.500,1.005,0.727,0.329,0.580,0.544,��,5.6,��
2023/05/18,03:50,0.568,0.826,0.499,1.006,0.727,0.329,0.580,0.545,��,5.5,��
2023/05/18,04:00,0.566,0.825,0.498,1.005,0.728,0.329,0.581,0.545,��,3.2,��
2023/05/18,04:10,0.567,0.829,0.497,1.006,0.727,0.328,0.581,0.544,���k��,3.5,��
2023/05/18,04:20,0.567,0.825,0.500,1.005,0.727,0.329,0.580,0.545,���k��,2.6,��
2023/05/18,04:30,0.565,0.824,0.497,1.005,0.728,0.329,0.580,0.545,���k��,4.0,��
2023/05/18,04:40,0.567,0.826,0.498,1.007,0.728,0.328,0.579,0.545,���k��,3.4,��
2023/05/18,04:50,0.566,0.826,0.498,1.005,0.727,0.328,0.580,0.544,��,2.2,��
2023/05/18,05:00,0.565,0.825,0.499,1.004,0.728,0.328,0.581,0.546,��,3.5,��
2023/05/18,05:10,0.566,0.826,0.498,1.005,0.727,0.329,0.580,0.544,���k��,3.5,��
2023/05/18,05:20,0.567,0.825,0.500,1.004,0.729,0.330,0.581,0.544,��,2.3,��
2023/05/18,05:30,0.565,0.827,0.500,1.008,0.727,0.327,0.580,0.545,�쐼,1.7,��
2023/05/18,05:40,0.566,0.826,0.498,1.006,0.729,0.328,0.580,0.546,���쐼,5.3,��
2023/05/18,05:50,0.567,0.827,0.498,1.005,0.728,0.327,0.580,0.545,���쐼,4.3,��
2023/05/18,06:00,0.567,0.826,0.500,1.006,0.726,0.328,0.580,0.545,�쐼,2.0,��
2023/05/18,06:10,0.567,0.828,0.499,1.005,0.727,0.328,0.579,0.544,���k��,0.6,��
2023/05/18,06:20,0.569,0.828,0.497,1.006,0.727,0.327,0.579,0.544,-,CALM,��
2023/05/18,06:30,0.568,0.826,0.500,1.006,0.728,0.328,0.579,0.546,��,1.5,��
2023/05/18,06:40,0.565,0.826,0.500,1.006,0.726,0.328,0.580,0.544,�k�k��,2.3,��
2023/05/18,06:50,0.567,0.825,0.499,1.007,0.727,0.326,0.581,0.543,�k,2.6,��
2023/05/18,07:00,0.567,0.824,0.499,1.005,0.728,0.327,0.580,0.545,�k,1.7,��
2023/05/18,07:10,0.569,0.824,0.500,1.006,0.727,0.327,0.580,0.550,�k,0.6,��
2023/05/18,07:20,0.567,0.826,0.501,1.008,0.729,0.324,0.580,0.545,���쓌,0.8,��
2023/05/18,07:30,0.567,0.823,0.500,1.006,0.730,0.327,0.581,0.545,��,1.1,��
2023/05/18,07:40,0.567,0.826,0.501,1.007,0.727,0.326,0.579,0.545,�쓌,1.7,��
2023/05/18,07:50,0.566,0.824,0.499,1.006,0.729,0.327,0.581,0.544,���쓌,1.7,��
2023/05/18,08:00,0.566,0.826,0.500,1.008,0.729,0.329,0.579,0.544,��,3.1,��
2023/05/18,08:10,0.566,0.824,0.498,1.006,0.728,0.327,0.579,0.543,��,2.5,��
2023/05/18,08:20,0.566,0.826,0.498,1.008,0.728,0.328,0.579,0.542,���k��,2.0,��
2023/05/18,08:30,0.564,0.824,0.498,1.009,0.728,0.326,0.580,0.543,��,2.5,��
2023/05/18,08:40,0.562,0.825,0.499,1.007,0.728,0.326,0.578,0.543,���쓌,2.0,��
2023/05/18,08:50,0.559,0.825,0.498,1.010,0.728,0.328,0.579,0.542,�쓌,1.7,��
2023/05/18,09:00,0.562,0.827,0.499,1.007,0.729,0.327,0.579,0.542,�쓌,2.5,��
2023/05/18,09:10,0.562,0.827,0.498,1.007,0.728,0.327,0.579,0.543,�쓌,2.2,��
2023/05/18,09:20,0.562,0.827,0.497,1.007,0.728,0.327,0.579,0.543,�쓌,2.6,��
2023/05/18,09:30,0.564,0.828,0.499,1.007,0.728,0.327,0.579,0.544,���쓌,2.5,��
2023/05/18,09:40,0.561,0.827,0.498,1.009,0.728,0.326,0.579,0.543,���쓌,2.6,��
2023/05/18,09:50,0.563,0.827,0.499,1.010,0.729,0.327,0.578,0.543,�쓌,2.6,��
2023/05/18,10:00,0.561,0.826,0.499,1.008,0.729,0.328,0.580,0.543,���쓌,2.0,��
2023/05/18,10:10,0.561,0.826,0.497,1.007,0.729,0.328,0.579,0.543,��,2.0,��
2023/05/18,10:20,0.561,0.829,0.499,1.011,0.730,0.327,0.579,0.543,��,1.9,��
2023/05/18,10:30,0.564,0.828,0.498,1.009,0.729,0.327,0.579,0.544,���쓌,2.6,��
2023/05/18,10:40,0.564,0.829,0.499,1.009,0.729,0.326,0.580,0.544,���쓌,2.3,��
2023/05/18,10:50,0.564,0.829,0.501,1.007,0.729,0.325,0.579,0.545,���쓌,1.5,��
2023/05/18,11:00,0.566,0.829,0.499,1.007,0.729,-,0.579,0.544,�쓌,2.8,��
2023/05/18,11:10,0.565,0.827,0.498,1.007,0.730,-,0.580,0.544,��쓌,5.0,��
2023/05/18,11:20,0.568,0.829,0.500,1.005,0.730,-,0.579,0.544,��쓌,6.8,��
2023/05/18,11:30,0.569,0.829,0.500,1.006,0.730,-,0.579,0.544,��,7.1,��
2023/05/18,11:40,0.570,0.829,0.500,1.008,0.731,-,0.579,0.544,��쓌,6.6,��
2023/05/18,11:50,0.569,0.831,0.500,1.006,0.733,-,0.581,0.543,��쓌,7.9,��
2023/05/18,12:00,0.570,0.830,0.499,1.008,0.733,-,0.581,0.544,��쓌,7.7,��
2023/05/18,12:10,0.569,0.830,0.500,1.006,0.731,-,0.580,0.543,��쓌,8.3,��
2023/05/18,12:20,0.569,0.829,0.502,1.008,0.733,-,0.579,0.543,��쓌,7.9,��
2023/05/18,12:30,0.568,0.831,0.500,1.007,0.732,-,0.581,0.544,��쓌,9.0,��
2023/05/18,12:40,0.569,0.829,0.499,1.007,0.734,-,0.581,0.544,��쓌,11.1,��
2023/05/18,12:50,0.569,0.830,0.500,1.007,0.733,-,0.581,0.544,��쓌,12.5,��
2023/05/18,13:00,0.569,0.831,0.499,1.008,0.732,-,0.580,0.546,��쓌,11.6,��
2023/05/18,13:10,0.569,0.829,0.501,1.011,0.733,-,0.582,0.545,��,11.1,��
2023/05/18,13:20,0.570,0.830,0.501,1.009,0.734,-,0.581,0.545,��쓌,10.8,��
2023/05/18,13:30,0.571,0.830,0.502,1.009,0.730,-,0.582,0.545,��,10.7,��
2023/05/18,13:40,0.571,0.831,0.501,1.008,0.733,-,0.583,0.546,��,13.8,��
2023/05/18,13:50,0.571,0.831,0.502,1.009,0.732,-,0.581,0.545,��쓌,15.3,��
2023/05/18,14:00,0.571,0.830,0.503,1.011,0.735,-,0.581,0.545,��쓌,13.3,��
2023/05/18,14:10,0.572,0.830,0.501,1.009,0.736,-,0.583,0.546,��,12.2,��
2023/05/18,14:20,0.572,0.829,0.503,1.010,0.735,-,0.583,0.546,��,10.5,��
2023/05/18,14:30,0.571,0.832,0.501,1.008,0.733,0.330,0.582,0.546,��,12.2,��
2023/05/18,14:40,0.572,0.832,0.504,1.009,0.735,0.332,0.581,0.544,��쓌,11.4,��
2023/05/18,14:50,0.572,0.832,0.502,1.010,0.735,0.331,0.581,0.546,��,12.7,��
2023/05/18,15:00,0.571,0.832,0.503,1.011,0.737,0.331,0.580,0.546,��,11.7,��
2023/05/18,15:10,0.573,0.832,0.504,1.010,0.736,0.331,0.584,0.546,��,11.0,��
2023/05/18,15:20,0.574,0.832,0.503,1.011,0.736,0.330,0.581,0.546,��,10.5,��
2023/05/18,15:30,0.573,0.833,0.504,1.012,0.738,0.331,0.581,0.545,��,8.8,��
2023/05/18,15:40,0.575,0.833,0.503,1.012,0.738,0.331,0.581,0.546,��,9.2,��
2023/05/18,15:50,0.575,0.834,0.503,1.011,0.738,0.329,0.582,0.546,��,10.5,��
2023/05/18,16:00,0.574,0.835,0.504,1.014,0.738,0.331,0.581,0.545,��,8.4,��
2023/05/18,16:10,0.576,0.832,0.504,1.013,0.738,0.330,0.582,0.545,��,8.6,��
2023/05/18,16:20,0.575,0.836,0.502,1.012,0.738,0.329,0.580,0.544,��,8.6,��
2023/05/18,16:30,0.574,0.833,0.504,1.014,0.739,0.330,0.581,0.546,��,8.3,��
2023/05/18,16:40,0.573,0.833,0.505,1.015,0.738,0.330,0.581,0.545,��,8.1,��
2023/05/18,16:50,0.574,0.834,0.504,1.011,0.738,0.330,0.581,0.545,��,7.3,��
2023/05/18,17:00,0.573,0.834,0.504,1.014,0.737,0.331,0.584,0.546,��,7.8,��
2023/05/18,17:10,0.574,0.833,0.505,1.013,0.737,0.331,0.580,0.546,��,7.9,��
2023/05/18,17:20,0.574,0.834,0.503,1.015,0.737,0.329,0.581,0.545,��,7.7,��
2023/05/18,17:30,0.572,0.832,0.503,1.017,0.736,0.329,0.580,0.545,��쓌,7.6,��
2023/05/18,17:40,0.570,0.832,0.502,1.016,0.737,0.330,0.580,0.545,��쓌,12.8,��
2023/05/18,17:50,0.572,0.832,0.501,1.016,0.737,0.328,0.581,0.545,��쓌,12.2,��
2023/05/18,18:00,0.570,0.831,0.501,1.013,0.736,0.329,0.578,0.545,��쓌,11.6,��
2023/05/18,18:10,0.571,0.833,0.500,1.016,0.734,0.329,0.581,0.544,��쓌,10.3,��
2023/05/18,18:20,0.570,0.833,0.501,1.014,0.737,0.329,0.579,0.545,��쓌,10.0,��
2023/05/18,18:30,0.571,0.832,0.502,1.016,0.737,0.328,0.579,0.547,��,7.3,��
2023/05/18,18:40,0.570,0.832,0.501,1.013,0.737,0.328,0.581,0.546,��,6.7,��
2023/05/18,18:50,0.570,0.832,0.501,1.015,0.735,0.329,0.580,0.549,��,6.7,��
2023/05/18,19:00,0.571,0.833,0.501,1.014,0.737,0.327,0.581,0.546,��,6.3,��
2023/05/18,19:10,0.569,0.833,0.501,1.012,0.736,0.329,0.579,0.547,��,5.6,��
2023/05/18,19:20,0.571,0.833,0.501,1.011,0.735,0.327,0.580,0.547,��,5.4,��
2023/05/18,19:30,0.569,0.832,0.502,1.013,0.737,0.328,0.581,0.547,��,6.2,��
2023/05/18,19:40,0.569,0.831,0.500,1.014,0.736,0.328,0.580,0.547,��,6.1,��
2023/05/18,19:50,0.570,0.832,0.502,1.015,0.735,0.328,0.582,0.545,��,6.7,��
2023/05/18,20:00,0.570,0.833,0.501,1.013,0.736,0.328,0.581,0.546,��,7.4,��
2023/05/18,20:10,0.570,0.833,0.499,1.016,0.736,0.328,0.582,0.546,��,7.1,��
2023/05/18,20:20,0.571,0.835,0.500,1.014,0.737,0.328,0.582,0.546,��,6.9,��
2023/05/18,20:30,0.572,0.834,0.502,1.013,0.737,0.328,0.581,0.548,��,6.6,��
2023/05/18,20:40,0.570,0.836,0.503,1.014,0.737,0.329,0.581,0.546,��,6.2,��
2023/05/18,20:50,0.571,0.837,0.501,1.016,0.738,0.328,0.582,0.547,��,6.1,��
2023/05/18,21:00,0.570,0.835,0.503,1.016,0.738,0.329,0.582,0.547,��,5.7,��
2023/05/18,21:10,0.571,0.834,0.504,1.016,0.738,0.328,0.581,0.546,��,5.9,��
2023/05/18,21:20,0.573,0.835,0.503,1.016,0.740,0.329,0.582,0.548,��,6.6,��
2023/05/18,21:30,0.571,0.833,0.501,1.015,0.740,0.329,0.582,0.547,��,6.2,��
2023/05/18,21:40,0.571,0.836,0.504,1.017,0.738,0.330,0.581,0.546,��,6.1,��
2023/05/18,21:50,0.571,0.836,0.501,1.014,0.738,0.329,0.582,0.545,��,5.8,��
2023/05/18,22:00,0.572,0.836,0.502,1.015,0.738,0.328,0.583,0.547,��,4.8,��
2023/05/18,22:10,0.571,0.835,0.502,1.015,0.738,0.329,0.583,0.547,��,5.3,��
2023/05/18,22:20,0.572,0.834,0.502,1.015,0.737,0.328,0.584,0.546,��,5.9,��
2023/05/18,22:30,0.572,0.836,0.502,1.016,0.738,0.328,0.583,0.546,��,6.2,��
2023/05/18,22:40,0.571,0.837,0.505,1.016,0.736,0.328,0.583,0.547,��,6.7,��
2023/05/18,22:50,0.573,0.835,0.501,1.016,0.738,0.330,0.583,0.546,��,6.2,��
2023/05/18,23:00,0.573,0.835,0.503,1.016,0.739,0.330,0.581,0.549,��,6.5,��
2023/05/18,23:10,0.572,0.834,0.503,1.016,0.739,0.330,0.582,0.548,��,6.4,��
2023/05/18,23:20,0.571,0.835,0.504,1.015,0.738,0.330,0.584,0.548,��,5.4,��
2023/05/18,23:30,0.571,0.834,0.504,1.015,0.736,0.328,0.583,0.547,��,6.4,��
2023/05/18,23:40,0.572,0.833,0.503,1.014,0.737,0.331,0.583,0.546,��,6.8,��
2023/05/18,23:50,0.572,0.836,0.504,1.015,0.737,0.331,0.583,0.548,��,6.3,��
